STARLINK-11747, 64322

Orbit data source: Space-Track

STARLINK-11747, 64322 is a payload satellite owned by SpaceX/Seattle (US) in LEO that was launched on Tue, 10 Jun 2025 UTC via an FALCON 9 launch vehicle from the Air Force Eastern Test Range (AFETR). Payload-class satellites include a variety of spacecraft equipped with specific instruments for various scientific and technological missions. These include communications satellites like Starlink; space stations such as the ISS; scientific satellites like the Hubble; Earth observation satellites from companies like Planet Labs, Umbra, and HawkEye 360; GPS; miniature CubeSats for education and research; and military/defense satellites.

Loading next visibility...
Identifier
64322, 2025-124F
Orbit
LEO
Country
Flag of USUS
Related business
Manufacturer
SpaceX/Seattle
Mission
Operational Commercial Communications
Bus & Motor
STARLINK V2MD, Unknown motor
Mass
960 kg wet, ~910 kg dry
Launch date (UTC)
2025-06-10 (9 months ago)
Launch vehicle
FALCON 9
Launch site
Air Force Eastern Test Range (AFETR)
Object type
Payload
Rocket body
Debris
Shape & HBR
Box + 2 Pan, 18.1 m
Radar Cross Section
36.964 m², Large (>1 m²)

Expand to show TLE details & history
Last TLE update: 9 hours ago

TLE from 9 hours ago
0 STARLINK-11747
1 64322U 25124F   26074.47602661  .00217619  00000-0  16511-2 0  9994
2 64322  43.0015 354.4055 0001575 297.4847  62.5861 15.70901833 43740
Epoch: 2026-03-15T11:25Z
TLE epoch observation values (Epoch: 2026-03-15T11:25:28.699Z)
Latitude
0.00003°
Longitude
9.95365°
Altitude
355.601 km
Speed
7.698 km/s
True Right ascension
23h 37m 37s
True Declination
0° 00' 00"
Sunlit
Object was in daylight at epoch
Visualization orbit readout
Latitude
Unknown
Longitude
Unknown
Altitude
Unknown
Speed
Unknown
Apparent Right ascension
Unknown
Apparent Declination
Unknown
Sunlit
N/A
Visualization observer readout
Local Sidereal Time
01:18:49
Azimuth
Unknown
Elevation
Unknown
Doppler factor
Unknown
Orbital elements
Apogee altitude
359.361 km
Perigee altitude
357.239 km
Semi-major axis
6,736.437 km
Eccentricity
0.00016
Inclination
43.0015°
RAAN
354.4055°
Arg. of periapsis
297.4847°
True anomaly
62.60212°
Mean anomaly
62.5861°
Eccentric anomaly
62.59411°
Mean motion
3.92553 °/min
Orbital period
91.71 mins
BSTAR
0.0016511
Loading maneuver chart data...
Computing Atmospheric mass density...
Loading historical data...
Loading historical data...
Loading historical data...
Loading historical data...
Loading historical data...
Loading historical data...
Loading historical data...

Documentation

Showing up to 5 results
|